N8IR-19 Weather Reports


Display with metric or nautical units.
time (UTC)temp
F
wind
direction
speed
MPH
gust
MPH
rain 1hr
in
rain 24hr
in
rain mn
in
humidity
%
barometer
mb
20260508120918 50 248 7.0 9.0 0.00 0.00 0.00 50 992.5
20260508120418 50 225 8.0 9.0 0.00 0.00 0.00 50 992.5
20260508115959 50 248 7.0 9.0 0.00 0.00 0.00 50 992.4
20260508115418 50 225 9.0 12.0 0.00 0.00 0.00 50 992.5
20260508114918 50 248 9.0 11.0 0.00 0.00 0.00 50 992.4
20260508114417 50 225 11.0 13.0 0.00 0.00 0.00 50 992.3
20260508113918 50 225 9.0 11.0 0.00 0.00 0.00 50 992.2
20260508113439 50 225 10.0 13.0 0.00 0.00 0.00 50 992.0
20260508112918 50 225 8.0 10.0 0.00 0.00 0.00 50 992.0
20260508112418 50 225 8.0 10.0 0.00 0.00 0.00 50 992.0
20260508111918 50 225 9.0 10.0 0.00 0.00 0.00 50 991.9
20260508111418 50 225 9.0 11.0 0.00 0.00 0.00 50 991.9
20260508110917 50 225 10.0 12.0 0.00 0.00 0.00 51 991.9
20260508110418 50 225 10.0 11.0 0.00 0.00 0.00 51 991.8
20260508105918 50 203 10.0 11.0 0.00 0.00 0.00 51 991.7
20260508105417 50 203 9.0 12.0 0.00 0.00 0.00 51 991.7
20260508104918 50 203 10.0 12.0 0.00 0.00 0.00 51 991.8
20260508104418 50 225 8.0 10.0 0.00 0.00 0.00 51 991.8
20260508103918 50 225 8.0 9.0 0.00 0.00 0.00 51 991.9
20260508103418 50 248 5.0 7.0 0.00 0.00 0.00 50 991.8
20260508102918 50 248 2.0 3.0 0.00 0.00 0.00 50 991.8
20260508102418 50 225 8.0 10.0 0.00 0.00 0.00 51 991.8
20260508101918 50 225 6.0 9.0 0.00 0.00 0.00 51 991.8
20260508101417 50 225 5.0 6.0 0.00 0.00 0.00 51 991.7
20260508100918 50 225 4.0 5.0 0.00 0.00 0.00 51 991.7
20260508100417 50 225 6.0 9.0 0.00 0.00 0.00 52 991.7
20260508095918 49 225 7.0 9.0 0.00 0.00 0.00 52 991.7
20260508095419 49 225 8.0 12.0 0.00 0.00 0.00 52 991.7
20260508094938 49 203 9.0 11.0 0.00 0.00 0.00 53 991.7
20260508094417 49 203 10.0 13.0 0.00 0.00 0.00 54 991.7
20260508093918 49 203 8.0 13.0 0.00 0.00 0.00 54 991.7
20260508093417 48 225 8.0 9.0 0.00 0.00 0.00 55 991.9
20260508092958 48 225 9.0 11.0 0.00 0.00 0.00 56 991.9
20260508092418 48 225 7.0 8.0 0.00 0.00 0.00 56 991.9
20260508091917 48 225 7.0 8.0 0.00 0.00 0.00 55 991.9
20260508091438 48 225 6.0 6.0 0.00 0.00 0.00 55 991.9
20260508090918 48 225 7.0 8.0 0.00 0.00 0.00 55 991.9
20260508090418 48 225 5.0 6.0 0.00 0.00 0.00 55 991.8
20260508085917 48 248 5.0 6.0 0.00 0.00 0.00 55 991.9
20260508085418 48 225 5.0 7.0 0.00 0.00 0.00 56 991.9
20260508084937 48 225 6.0 7.0 0.00 0.00 0.00 56 991.9
20260508084417 48 225 8.0 10.0 0.00 0.00 0.00 55 991.9
20260508083917 48 225 7.0 10.0 0.00 0.00 0.00 56 991.9
20260508083417 48 225 6.0 8.0 0.00 0.00 0.00 56 991.9
20260508082917 48 203 7.0 8.0 0.00 0.00 0.00 56 992.0
20260508082418 48 225 8.0 10.0 0.00 0.00 0.00 56 992.0
20260508081918 48 225 8.0 11.0 0.00 0.00 0.00 56 992.1
20260508081417 48 225 9.0 11.0 0.00 0.00 0.00 56 992.1
20260508080918 48 225 10.0 12.0 0.00 0.00 0.00 56 992.1
20260508080417 48 203 9.0 11.0 0.00 0.00 0.00 56 992.2
20260508075917 48 225 10.0 12.0 0.00 0.00 0.00 56 992.1
20260508075437 48 225 10.0 12.0 0.00 0.00 0.00 56 992.2
20260508074918 48 203 7.0 10.0 0.00 0.00 0.00 57 992.1
20260508074418 48 225 8.0 11.0 0.00 0.00 0.00 57 992.1
20260508073918 48 225 10.0 11.0 0.00 0.00 0.00 56 992.2
20260508073438 48 225 9.0 10.0 0.00 0.00 0.00 56 992.2
20260508072938 49 225 8.0 9.0 0.00 0.00 0.00 57 992.2
20260508072417 49 225 7.0 9.0 0.00 0.00 0.00 57 992.2
20260508071917 49 225 9.0 12.0 0.00 0.00 0.00 56 992.3
20260508071419 49 225 8.0 10.0 0.00 0.00 0.00 57 992.4
20260508070917 49 225 9.0 11.0 0.00 0.00 0.00 56 992.3
20260508070417 49 225 8.0 9.0 0.00 0.00 0.00 56 992.4
20260508065918 49 225 9.0 10.0 0.00 0.00 0.00 56 992.4
20260508065417 49 225 9.0 10.0 0.00 0.00 0.00 56 992.4
20260508064918 49 225 9.0 11.0 0.00 0.00 0.00 56 992.4
20260508064417 49 225 9.0 11.0 0.00 0.00 0.00 56 992.4
20260508063918 50 225 9.0 11.0 0.00 0.00 0.00 55 992.4
20260508063417 50 225 9.0 10.0 0.00 0.00 0.00 55 992.5
20260508062937 50 225 10.0 12.0 0.00 0.00 0.00 55 992.5
20260508062417 50 225 11.0 12.0 0.00 0.00 0.00 55 992.5
20260508061918 50 225 11.0 14.0 0.00 0.00 0.00 53 992.5
20260508061459 50 248 11.0 13.0 0.00 0.00 0.00 53 992.5
20260508060917 51 225 8.0 11.0 0.00 0.00 0.00 53 992.5
20260508060417 51 225 9.0 10.0 0.00 0.00 0.00 52 992.5
20260508055917 51 225 6.0 9.0 0.00 0.00 0.00 52 992.5
20260508055417 51 225 7.0 10.0 0.00 0.00 0.00 52 992.6
20260508054917 51 225 6.0 9.0 0.00 0.00 0.00 52 992.5
20260508054419 51 225 7.0 8.0 0.00 0.00 0.00 52 992.7
20260508053937 50 248 7.0 9.0 0.00 0.00 0.00 52 992.6
20260508053440 50 248 8.0 9.0 0.00 0.00 0.00 52 992.7
20260508052920 50 225 10.0 12.0 0.00 0.00 0.00 52 992.7
20260508052417 50 225 12.0 17.0 0.00 0.00 0.00 52 992.7
20260508051939 50 225 10.0 12.0 0.00 0.00 0.00 52 992.8
20260508051441 50 203 7.0 11.0 0.00 0.00 0.00 53 992.8
20260508050917 50 203 7.0 9.0 0.00 0.00 0.00 53 992.9
20260508050420 50 225 7.0 9.0 0.00 0.00 0.00 53 992.8
20260508045917 50 203 8.0 10.0 0.00 0.00 0.00 53 992.8
20260508045419 50 203 5.0 6.0 0.00 0.00 0.00 53 992.8
20260508044919 50 203 7.0 9.0 0.00 0.00 0.00 52 992.9
20260508044439 50 203 4.0 6.0 0.00 0.00 0.00 52 992.9
20260508043937 50 203 3.0 6.0 0.00 0.00 0.00 52 992.9
20260508043417 50 203 5.0 8.0 0.00 0.00 0.00 51 992.9
20260508042919 50 180 4.0 7.0 0.00 0.00 0.00 51 992.9
20260508042420 51 203 2.0 4.0 0.00 0.00 0.00 51 992.9
20260508041941 51 203 4.0 6.0 0.00 0.00 0.00 51 992.9
20260508041417 51 225 7.0 9.0 0.00 0.00 0.00 50 992.9
20260508040917 51 225 6.0 8.0 0.00 0.00 0.00 50 993.0
20260508040419 51 225 6.0 8.0 0.00 0.00 0.00 50 993.1
20260508035917 51 225 6.0 8.0 0.00 0.00 0.00 50 993.1
20260508035418 51 225 7.0 8.0 0.00 0.00 0.00 50 993.1
20260508034938 51 225 6.0 7.0 0.00 0.00 0.00 50 993.1
20260508034418 51 225 6.0 8.0 0.00 0.00 0.00 49 993.0
20260508033918 51 225 8.0 9.0 0.00 0.00 0.00 49 993.1
20260508033418 51 225 6.0 7.0 0.00 0.00 0.00 49 993.1
20260508032918 51 225 8.0 10.0 0.00 0.00 0.00 49 993.1
20260508032417 51 225 9.0 11.0 0.00 0.00 0.00 49 993.1
20260508031917 52 225 8.0 9.0 0.00 0.00 0.00 48 993.0
20260508031417 52 225 8.0 11.0 0.00 0.00 0.00 48 993.2
20260508030917 52 225 9.0 11.0 0.00 0.00 0.00 48 993.2
20260508030417 52 225 9.0 11.0 0.00 0.00 0.00 49 993.2
20260508025917 52 225 10.0 11.0 0.00 0.00 0.00 48 993.3
20260508025417 52 225 10.0 11.0 0.00 0.00 0.00 48 993.4
20260508024917 52 225 10.0 13.0 0.00 0.00 0.00 48 993.3
20260508024438 52 225 12.0 15.0 0.00 0.00 0.00 48 993.3
20260508023917 52 225 10.0 12.0 0.00 0.00 0.00 46 993.3
20260508023418 52 225 12.0 15.0 0.00 0.00 0.00 46 993.2
20260508022917 53 248 12.0 16.0 0.00 0.00 0.00 45 993.3
20260508022418 53 225 12.0 14.0 0.00 0.00 0.00 45 993.2
20260508021937 53 225 10.0 11.0 0.00 0.00 0.00 45 993.2
20260508021418 53 225 12.0 14.0 0.00 0.00 0.00 44 993.1
20260508020917 53 225 10.0 12.0 0.00 0.00 0.00 42 993.1
20260508020417 54 225 6.0 8.0 0.00 0.00 0.00 43 993.2
20260508015917 54 225 8.0 10.0 0.00 0.00 0.00 42 993.2
20260508015417 54 225 7.0 10.0 0.00 0.00 0.00 41 993.2
20260508014917 54 225 6.0 9.0 0.00 0.00 0.00 41 993.1
20260508014438 54 225 6.0 10.0 0.00 0.00 0.00 40 993.0
20260508013957 54 248 7.0 10.0 0.00 0.00 0.00 40 993.0
20260508013417 54 225 9.0 11.0 0.00 0.00 0.00 40 992.9
20260508012917 54 225 11.0 14.0 0.00 0.00 0.00 40 992.8
20260508012417 54 203 7.0 19.0 0.00 0.00 0.00 39 992.7
20260508011917 54 203 4.0 6.0 0.00 0.00 0.00 42 992.8
20260508011417 54 203 4.0 6.0 0.00 0.00 0.00 42 992.7
20260508010937 54 225 3.0 3.0 0.00 0.00 0.00 42 992.6
20260508010417 54 225 2.0 4.0 0.00 0.00 0.00 42 992.6
20260508005917 54 248 2.0 2.0 0.00 0.00 0.00 42 992.4
20260508005416 54 248 1.0 2.0 0.00 0.00 0.00 43 992.5
20260508004917 54 248 2.0 2.0 0.00 0.00 0.00 42 992.5
20260508004417 54 0.0 2.0 0.00 0.00 0.00 41 992.4
20260508003917 54 248 1.0 2.0 0.00 0.00 0.00 38 992.4
20260508003417 54 270 2.0 2.0 0.00 0.00 0.00 37 992.5
20260508002918 54 270 1.0 3.0 0.00 0.00 0.00 35 992.4
20260508002437 54 270 1.0 2.0 0.00 0.00 0.00 36 992.4
20260508001917 55 270 2.0 3.0 0.00 0.00 0.00 36 992.3
20260508001416 55 270 2.0 3.0 0.00 0.00 0.00 34 992.3
20260508000917 55 270 4.0 6.0 0.00 0.00 0.00 35 992.3
20260508000419 55 248 2.0 4.0 0.00 0.00 0.00 33 992.3
20260507235916 56 270 2.0 4.0 0.00 0.00 0.00 33 992.2
20260507235417 56 293 1.0 3.0 0.00 0.00 0.00 31 992.2
20260507234917 56 293 2.0 3.0 0.00 0.00 0.00 30 992.3
20260507234417 57 338 2.0 3.0 0.00 0.00 0.00 32 992.3
20260507233917 57 338 1.0 2.0 0.00 0.00 0.00 34 992.3
20260507233416 57 315 3.0 4.0 0.00 0.00 0.00 32 992.3
20260507232957 57 315 2.0 3.0 0.00 0.00 0.00 32 992.3
20260507232417 57 293 2.0 4.0 0.00 0.00 0.00 32 992.3
20260507231917 57 270 3.0 5.0 0.00 0.00 0.00 30 992.3
20260507231417 57 338 2.0 4.0 0.00 0.00 0.00 30 992.4
20260507230957 57 315 1.0 3.0 0.00 0.00 0.00 30 992.4
20260507230417 57 338 2.0 5.0 0.00 0.00 0.00 29 992.4
20260507225917 57 315 3.0 5.0 0.00 0.00 0.00 30 992.5
20260507225418 57 293 4.0 8.0 0.00 0.00 0.00 31 992.6
20260507224920 57 270 6.0 9.0 0.00 0.00 0.00 31 992.6
20260507224418 57 338 5.0 8.0 0.00 0.00 0.00 32 992.6
20260507223939 57 293 3.0 5.0 0.00 0.00 0.00 31 992.6
20260507223417 57 338 4.0 8.0 0.00 0.00 0.00 30 992.6
20260507222939 57 270 3.0 7.0 0.00 0.00 0.00 31 992.7
20260507222419 57 270 7.0 10.0 0.00 0.00 0.00 33 992.6
20260507221918 57 315 4.0 7.0 0.00 0.00 0.00 31 992.7
20260507221419 57 270 7.0 9.0 0.00 0.00 0.00 32 992.7
20260507220919 57 270 6.0 9.0 0.00 0.00 0.00 31 992.5
20260507220419 57 315 8.0 12.0 0.00 0.00 0.00 32 992.6
20260507215939 57 270 7.0 10.0 0.00 0.00 0.00 32 992.5
20260507215420 57 270 7.0 10.0 0.00 0.00 0.00 32 992.5
20260507214917 57 270 6.0 9.0 0.00 0.00 0.00 32 992.5
20260507214420 57 270 6.0 9.0 0.00 0.00 0.00 32 992.6
20260507213939 57 270 7.0 10.0 0.00 0.00 0.00 36 992.6
20260507213421 57 270 7.0 10.0 0.00 0.00 0.00 35 992.5
20260507212920 57 270 9.0 12.0 0.00 0.00 0.00 35 992.5
20260507212419 57 293 4.0 5.0 0.00 0.00 0.00 33 992.5
20260507211939 57 270 6.0 8.0 0.00 0.00 0.00 32 992.5
20260507211419 57 270 6.0 10.0 0.00 0.00 0.00 32 992.5
20260507210937 57 270 5.0 9.0 0.00 0.00 0.00 35 992.5
20260507210420 57 270 12.0 14.0 0.00 0.00 0.00 35 992.4
20260507205919 57 293 4.0 8.0 0.00 0.00 0.00 35 992.4
20260507205419 57 293 5.0 8.0 0.00 0.00 0.00 34 992.4
20260507204918 57 270 5.0 7.0 0.00 0.00 0.00 34 992.5
20260507204437 57 270 8.0 10.0 0.00 0.00 0.00 33 992.5
20260507203916 57 270 7.0 11.0 0.00 0.00 0.00 33 992.6
20260507203419 57 270 8.0 11.0 0.00 0.00 0.00 33 992.5
20260507202919 57 293 7.0 10.0 0.00 0.00 0.00 35 992.6
20260507202419 57 293 7.0 11.0 0.00 0.00 0.00 30 992.5
20260507201916 57 270 9.0 13.0 0.00 0.00 0.00 31 992.5
20260507201418 57 293 6.0 9.0 0.00 0.00 0.00 34 992.5
20260507200918 57 270 8.0 11.0 0.00 0.00 0.00 33 992.5
20260507200418 57 270 8.0 10.0 0.00 0.00 0.00 35 992.4
20260507195916 57 270 7.0 11.0 0.00 0.00 0.00 36 992.5
20260507195418 57 293 6.0 8.0 0.00 0.00 0.00 34 992.3
20260507194917 57 270 3.0 4.0 0.00 0.00 0.00 34 992.3
20260507194418 57 270 7.0 10.0 0.00 0.00 0.00 32 992.5
20260507193919 57 270 7.0 10.0 0.00 0.00 0.00 35 992.5
20260507193419 57 270 13.0 16.0 0.00 0.00 0.00 32 992.7
20260507192920 57 270 11.0 13.0 0.00 0.00 0.00 37 992.7
20260507192418 56 270 7.0 10.0 0.00 0.00 0.00 38 992.6
20260507191918 56 293 5.0 9.0 0.00 0.00 0.00 42 992.7
20260507191422 56 0 9.0 12.0 0.00 0.00 0.00 42 992.7
20260507190918 57 270 9.0 11.0 0.00 0.00 0.00 38 992.7
20260507190420 56 248 11.0 14.0 0.00 0.00 0.00 39 992.6
20260507185918 56 270 11.0 13.0 0.00 0.00 0.00 38 992.7
20260507185440 56 270 9.0 16.0 0.00 0.00 0.00 38 992.7
20260507184918 56 270 11.0 13.0 0.00 0.00 0.00 38 992.7
20260507184420 55 270 8.0 10.0 0.00 0.00 0.00 37 992.8
20260507183918 56 270 10.0 12.0 0.00 0.00 0.00 39 992.8
20260507183418 55 270 7.0 10.0 0.00 0.00 0.00 41 992.8
20260507182921 55 270 11.0 12.0 0.00 0.00 0.00 42 992.8
20260507182420 54 248 8.0 10.0 0.00 0.00 0.00 40 992.7
20260507181920 54 270 9.0 14.0 0.00 0.00 0.00 39 992.8
20260507181421 55 270 15.0 17.0 0.00 0.00 0.00 39 992.7
20260507180918 55 270 9.0 12.0 0.00 0.00 0.00 39 992.7
20260507180420 55 248 7.0 11.0 0.00 0.00 0.00 38 992.6
20260507175941 55 248 10.0 11.0 0.00 0.00 0.00 40 992.8
20260507175420 55 248 9.0 11.0 0.00 0.00 0.00 40 992.8
20260507174921 55 248 8.0 11.0 0.00 0.00 0.00 39 992.8
20260507174440 55 270 9.0 12.0 0.00 0.00 0.00 40 992.9
20260507173921 55 270 10.0 11.0 0.00 0.00 0.00 39 993.0
20260507173418 55 270 11.0 14.0 0.00 0.00 0.00 40 993.0
20260507172941 55 248 6.0 9.0 0.00 0.00 0.00 41 993.0
20260507172421 54 248 9.0 13.0 0.00 0.00 0.00 40 993.0
20260507171920 54 270 10.0 11.0 0.00 0.00 0.00 42 993.2
20260507171421 55 270 13.0 16.0 0.00 0.00 0.00 42 993.1
20260507170920 54 270 10.0 13.0 0.00 0.00 0.00 40 993.2
20260507170418 55 270 10.0 14.0 0.00 0.00 0.00 42 993.2
20260507165921 54 270 8.0 11.0 0.00 0.00 0.00 44 993.2
20260507165421 54 270 8.0 12.0 0.00 0.00 0.00 42 993.3
20260507164920 53 270 5.0 8.0 0.00 0.00 0.00 44 993.3
20260507164420 53 293 6.0 8.0 0.00 0.00 0.00 42 993.4
20260507163922 53 270 7.0 9.0 0.00 0.00 0.00 43 993.4
20260507163418 54 270 11.0 14.0 0.00 0.00 0.00 42 993.2
20260507162920 54 293 5.0 7.0 0.00 0.00 0.00 41 993.4
20260507162421 54 315 4.0 7.0 0.00 0.00 0.00 41 993.3
20260507161921 53 270 6.0 8.0 0.00 0.00 0.00 41 993.4
20260507161421 53 338 4.0 9.0 0.00 0.00 0.00 39 993.4
20260507160920 54 315 3.0 5.0 0.00 0.00 0.00 40 993.2
20260507160501 54 315 3.0 8.0 0.00 0.00 0.00 42 993.2
20260507155918 54 293 3.0 5.0 0.00 0.00 0.00 42 993.2
20260507155421 54 293 3.0 7.0 0.00 0.00 0.00 45 993.2
20260507154918 53 270 1.0 2.0 0.00 0.00 0.00 42 993.2
20260507154421 54 293 4.0 7.0 0.00 0.00 0.00 46 993.3
20260507153920 54 315 4.0 6.0 0.00 0.00 0.00 45 993.3
20260507153420 53 315 5.0 8.0 0.00 0.00 0.00 44 993.3
20260507152922 54 315 3.0 5.0 0.00 0.00 0.00 45 993.3
20260507152420 54 338 2.0 5.0 0.00 0.00 0.00 45 993.2
20260507151920 54 315 3.0 4.0 0.00 0.00 0.00 45 993.4
20260507151439 54 293 3.0 6.0 0.00 0.00 0.00 46 993.5
20260507150920 54 270 4.0 6.0 0.00 0.00 0.00 45 993.4
20260507150420 54 315 3.0 4.0 0.00 0.00 0.00 46 993.4
20260507145919 53 270 3.0 6.0 0.00 0.00 0.00 45 993.4
20260507145418 53 338 2.0 5.0 0.00 0.00 0.00 44 993.4
20260507144920 53 270 4.0 7.0 0.00 0.00 0.00 46 993.3
20260507144417 53 293 2.0 3.0 0.00 0.00 0.00 45 993.4
20260507143920 53 270 4.0 6.0 0.00 0.00 0.00 45 993.5
20260507143418 53 270 4.0 6.0 0.00 0.00 0.00 47 993.4
20260507142918 53 293 2.0 4.0 0.00 0.00 0.00 47 993.4
20260507142421 52 293 4.0 6.0 0.00 0.00 0.00 48 993.4
20260507141942 52 270 4.0 7.0 0.00 0.00 0.00 48 993.4
20260507141419 52 270 3.0 4.0 0.00 0.00 0.00 48 993.4
20260507140920 52 270 4.0 7.0 0.00 0.00 0.00 49 993.4
20260507140418 52 270 3.0 4.0 0.00 0.00 0.00 49 993.5
20260507135939 52 270 4.0 4.0 0.00 0.00 0.00 50 993.4
20260507135420 51 270 4.0 6.0 0.00 0.00 0.00 50 993.5
20260507134919 51 270 4.0 6.0 0.00 0.00 0.00 50 993.6
20260507134420 50 270 4.0 7.0 0.00 0.00 0.00 51 993.6
20260507133918 50 270 3.0 4.0 0.00 0.00 0.00 52 993.6
20260507133440 49 248 3.0 4.0 0.00 0.00 0.00 53 993.6
20260507132940 49 248 3.0 4.0 0.00 0.00 0.00 52 993.6
20260507132420 49 248 3.0 4.0 0.00 0.00 0.00 53 993.6
20260507131918 48 225 4.0 5.0 0.00 0.00 0.00 52 993.7
20260507131441 48 248 3.0 4.0 0.00 0.00 0.00 53 993.7
20260507130921 48 248 4.0 5.0 0.00 0.00 0.00 53 993.6
20260507130441 47 248 3.0 4.0 0.00 0.00 0.00 53 993.5
20260507125918 47 248 4.0 5.0 0.00 0.00 0.00 53 993.5
20260507125419 47 248 4.0 5.0 0.00 0.00 0.00 53 993.5
20260507124917 47 225 3.0 4.0 0.00 0.00 0.00 54 993.5
20260507124418 46 225 4.0 5.0 0.00 0.00 0.00 55 993.6
20260507123918 46 225 3.0 4.0 0.00 0.00 0.00 55 993.6
20260507123418 46 225 4.0 5.0 0.00 0.00 0.00 56 993.6
20260507122919 46 225 3.0 5.0 0.00 0.00 0.00 56 993.6
20260507122418 46 248 5.0 8.0 0.00 0.00 0.00 56 993.5
20260507121918 46 248 5.0 6.0 0.00 0.00 0.00 56 993.5
20260507121420 45 225 6.0 9.0 0.00 0.00 0.00 56 993.6